Date String (YYYY-MM-DD hh:mm:ss) UTC,Instrument flags,Ambient pressure (hPa),Sample flow (lpm),Bypass flow (lpm),Sample temperature (°C),Ambient temperature (°C),ASC tube jacket temperature (°C),LED temperature (°C),Box temperature (°C),Sample RH (%),Span deviation,Mass concentration (μg/m³),Mass concentration (μg/m³),Mass concentration (μg/m³)
DateTimeUTC,F1_M11,P_M11,Q1_M11,Q2_M11,T1_M11,T2_M11,T3_M11,T4_M11,T5_M11,U1_M11,ZSPAN_M11,X0_M11,X2_M11,X1_M11
2022-12-28 10:00:00,,0806.4,5.00,0.00,23.2,21.7,00.0,32.0,24.9,14.6,0000.0,0001.30,0000.11,0000.03
2022-12-28 10:01:00,,0806.3,4.99,0.00,23.2,21.7,00.0,32.0,24.9,14.7,0000.0,0001.28,0000.10,0000.03
2022-12-28 10:02:00,,0806.3,4.99,0.00,23.2,21.7,00.0,32.0,24.9,14.9,0000.0,0001.28,0000.10,0000.03
2022-12-28 10:03:00,,0806.2,5.00,0.00,23.2,21.7,00.0,32.0,24.9,14.9,0000.0,0001.15,0000.10,0000.03
2022-12-28 10:04:00,,0806.2,5.00,0.00,23.2,21.7,00.0,32.0,24.9,14.9,0000.0,0000.57,0000.10,0000.03
2022-12-28 10:05:00,,0806.2,5.00,0.00,23.1,21.7,00.0,32.0,24.9,14.8,0000.0,0000.58,0000.11,0000.03
2022-12-28 10:06:00,,0806.2,5.02,0.00,23.1,21.6,00.0,32.0,24.9,14.7,0000.0,0000.58,0000.11,0000.03
2022-12-28 10:07:00,,0806.2,5.00,0.00,23.1,21.6,00.0,32.0,24.9,14.6,0000.0,0000.58,0000.11,0000.02
2022-12-28 10:08:00,,0806.2,4.99,0.00,23.1,21.6,00.0,32.0,24.9,14.6,0000.0,0000.50,0000.09,0000.02
2022-12-28 10:09:00,,0806.1,4.99,0.00,23.1,21.6,00.0,32.0,24.9,14.6,0000.0,0000.12,0000.06,0000.02
2022-12-28 10:10:00,,0806.1,5.00,0.00,23.1,21.6,00.0,32.0,24.9,14.8,0000.0,0000.12,0000.07,0000.02
2022-12-28 10:11:00,,0806.2,5.00,0.00,23.1,21.5,00.0,32.0,24.8,14.7,0000.0,0000.14,0000.07,0000.02
2022-12-28 10:12:00,,0806.2,4.99,0.00,23.1,21.5,00.0,32.0,24.8,14.7,0000.0,0001.06,0000.07,0000.02
2022-12-28 10:13:00,,0806.2,4.99,0.00,23.0,21.5,00.0,31.9,24.7,14.6,0000.0,0001.29,0000.07,0000.02
2022-12-28 10:14:00,,0806.4,5.00,0.00,23.0,21.5,00.0,31.9,24.7,14.5,0000.0,0001.29,0000.07,0000.02
2022-12-28 10:15:00,,0806.3,5.00,0.00,23.0,21.5,00.0,32.0,24.7,14.7,0000.0,0001.29,0000.07,0000.02
2022-12-28 10:16:00,,0806.2,5.00,0.00,23.0,21.5,00.0,32.0,24.8,14.6,0000.0,0001.26,0000.07,0000.02
2022-12-28 10:17:00,,0806.1,5.00,0.00,23.0,21.5,00.0,31.9,24.8,14.7,0000.0,0001.30,0000.08,0000.02
2022-12-28 10:18:00,,0806.3,5.00,0.00,23.0,21.4,00.0,31.9,24.7,14.7,0000.0,0001.47,0000.09,0000.03
2022-12-28 10:19:00,,0806.5,5.00,0.00,23.0,21.3,00.0,31.9,24.7,14.8,0000.0,0001.47,0000.09,0000.03
2022-12-28 10:20:00,,0806.5,5.01,0.00,22.9,21.3,00.0,31.9,24.6,14.9,0000.0,0001.49,0000.09,0000.03
2022-12-28 10:21:00,,0806.6,5.00,0.00,22.9,21.3,00.0,31.9,24.6,14.9,0000.0,0001.49,0000.09,0000.03
2022-12-28 10:22:00,,0806.5,4.99,0.00,22.9,21.4,00.0,31.9,24.6,15.0,0000.0,0001.47,0000.08,0000.03
2022-12-28 10:23:00,,0806.4,5.00,0.00,22.9,21.4,00.0,31.9,24.6,14.9,0000.0,0000.68,0000.08,0000.03
2022-12-28 10:24:00,,0806.4,5.00,0.00,22.9,21.4,00.0,31.9,24.7,15.0,0000.0,0000.31,0000.08,0000.03
2022-12-28 10:25:00,,0806.4,5.01,0.00,22.9,21.4,00.0,31.9,24.7,15.1,0000.0,0000.31,0000.08,0000.03
2022-12-28 10:26:00,,0806.4,5.01,0.00,22.9,21.4,00.0,31.9,24.7,15.0,0000.0,0000.30,0000.07,0000.03
2022-12-28 10:27:00,,0806.4,4.99,0.00,22.9,21.4,00.0,31.9,24.6,15.0,0000.0,0000.28,0000.06,0000.03
2022-12-28 10:28:00,,0806.5,5.00,0.00,22.9,21.4,00.0,31.9,24.6,15.0,0000.0,0000.26,0000.05,0000.03
2022-12-28 10:29:00,,0806.2,5.00,0.00,22.9,21.4,00.0,31.8,24.6,15.0,0000.0,0000.08,0000.04,0000.02
2022-12-28 10:30:00,,0806.2,5.00,0.00,22.9,21.4,00.0,31.8,24.6,15.0,0000.0,0000.08,0000.04,0000.02
2022-12-28 10:31:00,,0806.2,5.01,0.00,22.9,21.4,00.0,31.8,24.6,15.0,0000.0,0000.06,0000.03,0000.02
2022-12-28 10:32:00,,0806.3,5.00,0.00,22.9,21.4,00.0,31.8,24.6,15.1,0000.0,0000.07,0000.04,0000.02
2022-12-28 10:33:00,,0806.3,4.99,0.00,22.9,21.4,00.0,31.8,24.6,15.3,0000.0,0000.07,0000.04,0000.03
2022-12-28 10:34:00,,0806.5,5.00,0.00,22.9,21.4,00.0,31.8,24.6,15.3,0000.0,0000.12,0000.05,0000.03
2022-12-28 10:35:00,,0806.5,5.01,0.00,22.9,21.3,00.0,31.8,24.5,15.4,0000.0,0000.12,0000.05,0000.03
2022-12-28 10:36:00,,0806.4,5.00,0.00,22.8,21.3,00.0,31.8,24.6,15.4,0000.0,0000.12,0000.05,0000.02
2022-12-28 10:37:00,,0806.4,5.00,0.00,22.9,21.4,00.0,31.8,24.6,15.4,0000.0,0000.12,0000.05,0000.02
2022-12-28 10:38:00,,0806.3,4.99,0.00,22.9,21.4,00.0,31.8,24.6,15.5,0000.0,0000.13,0000.05,0000.02
2022-12-28 10:39:00,,0806.4,5.00,0.00,22.9,21.3,00.0,31.8,24.6,15.5,0000.0,0000.19,0000.07,0000.02
2022-12-28 10:40:00,,0806.4,5.01,0.00,22.8,21.3,00.0,31.8,24.6,15.5,0000.0,0000.19,0000.08,0000.02
2022-12-28 10:41:00,,0806.5,5.00,0.00,22.8,21.3,00.0,31.7,24.5,15.4,0000.0,0000.18,0000.07,0000.02
2022-12-28 10:42:00,,0806.4,5.00,0.00,22.8,21.3,00.0,31.7,24.5,15.5,0000.0,0000.16,0000.07,0000.02
2022-12-28 10:43:00,,0806.5,4.99,0.00,22.8,21.3,00.0,31.7,24.5,15.5,0000.0,0000.18,0000.07,0000.02
2022-12-28 10:44:00,,0806.3,4.99,0.00,22.8,21.3,00.0,31.7,24.6,15.4,0000.0,0000.46,0000.08,0000.02
2022-12-28 10:45:00,,0806.4,5.00,0.00,22.8,21.3,00.0,31.7,24.6,15.2,0000.0,0001.24,0000.09,0000.02
2022-12-28 10:46:00,,0806.2,5.01,0.00,22.8,21.3,00.0,31.7,24.5,15.3,0000.0,0001.23,0000.08,0000.02
2022-12-28 10:47:00,,0806.1,5.00,0.00,22.8,21.3,00.0,31.7,24.6,15.3,0000.0,0001.23,0000.09,0000.02
2022-12-28 10:48:00,,0806.1,5.01,0.00,22.8,21.3,00.0,31.7,24.6,15.3,0000.0,0001.24,0000.09,0000.03
2022-12-28 10:49:00,,0806.2,5.01,0.00,22.8,21.3,00.0,31.7,24.6,15.3,0000.0,0001.24,0000.09,0000.03
2022-12-28 10:50:00,,0806.2,4.99,0.00,22.8,21.2,00.0,31.7,24.5,15.5,0000.0,0001.20,0000.08,0000.03
2022-12-28 10:51:00,,0806.2,4.99,0.00,22.8,21.2,00.0,31.7,24.5,15.3,0000.0,0001.20,0000.08,0000.03
2022-12-28 10:52:00,,0806.3,5.00,0.00,22.8,21.2,00.0,31.7,24.5,15.3,0000.0,0001.20,0000.08,0000.03
2022-12-28 10:53:00,,0806.3,4.99,0.00,22.7,21.2,00.0,31.7,24.4,15.3,0000.0,0001.28,0000.09,0000.03
2022-12-28 10:54:00,,0806.2,5.01,0.00,22.7,21.2,00.0,31.7,24.5,15.2,0000.0,0001.28,0000.08,0000.03
2022-12-28 10:55:00,,0806.2,5.00,0.00,22.7,21.2,00.0,31.7,24.4,15.3,0000.0,0001.00,0000.07,0000.02
2022-12-28 10:56:00,,0806.1,5.00,0.00,22.7,21.2,00.0,31.7,24.4,15.1,0000.0,0000.18,0000.06,0000.03
2022-12-28 10:57:00,,0806.1,5.01,0.00,22.7,21.2,00.0,31.7,24.4,15.1,0000.0,0000.26,0000.08,0000.03
2022-12-28 10:58:00,,0806.3,5.01,0.00,22.7,21.2,00.0,31.7,24.4,15.4,0000.0,0000.32,0000.10,0000.03
2022-12-28 10:59:00,,0806.3,5.00,0.00,22.7,21.2,00.0,31.6,24.3,15.5,0000.0,0000.32,0000.10,0000.03
